period_start,C,m1,H,J0,J1,J2,J3,J4,J5,JA,JB,JC,JD,JJ,JK,JN,#
2016-03-02 00:04:36,0.10,9.66,0.00,17.15,21.92,25.67,14.94,51.23,1018.08,2048.86,1242.99,1569.44,1783.14,599.59,608.58,42.06,0000 0000 0000 0000 000000
2016-03-02 00:09:37,0.05,9.67,0.00,17.14,21.90,25.63,14.96,51.13,1018.09,2048.95,1242.83,1569.03,1783.00,600.04,608.97,42.11,0000 0000 0000 0000 000000
2016-03-02 00:14:38,0.05,9.67,0.00,17.14,21.89,25.65,14.98,51.15,1018.09,2048.97,1242.23,1569.00,1782.92,599.98,609.00,42.16,0000 0000 0000 0000 000000
2016-03-02 00:19:40,0.04,9.67,0.00,17.13,21.88,25.59,14.98,51.14,1018.08,2048.97,1241.98,1568.98,1782.28,600.34,609.29,42.21,0000 0000 0000 0000 000000
2016-03-02 00:24:41,0.11,9.68,0.00,17.14,21.87,25.58,14.90,51.21,1018.08,2048.98,1241.58,1568.41,1782.00,599.86,608.93,42.26,0000 0000 0000 0000 000000
2016-03-02 00:29:42,0.05,9.68,0.00,17.12,21.87,25.58,15.01,51.20,1018.08,2048.98,1241.02,1568.02,1781.86,600.03,609.06,42.32,0000 0000 0000 0000 000000
2016-03-02 00:34:44,0.04,9.68,0.00,17.13,21.87,25.59,15.05,51.26,1018.08,2048.97,1240.96,1567.98,1781.15,600.23,609.21,42.37,0000 0000 0000 0000 000000
2016-03-02 00:39:45,0.09,9.69,0.00,17.11,21.87,25.60,15.00,51.38,1018.08,2048.98,1240.24,1567.82,1781.00,600.03,609.02,42.42,0000 0000 0000 0000 000000
2016-03-02 00:44:47,0.05,9.69,0.00,17.08,21.85,25.61,14.87,51.23,1018.08,2048.99,1240.00,1567.11,1780.97,599.54,608.57,42.47,0000 0000 0000 0000 000000
2016-03-02 00:49:48,0.05,9.69,0.00,17.08,21.84,25.62,14.95,51.36,1018.08,2048.99,1239.82,1567.00,1780.32,599.81,608.87,42.52,0000 0000 0000 0000 000000
2016-03-02 00:54:49,0.07,9.70,0.00,17.08,21.84,25.62,14.95,51.27,1018.08,2048.99,1239.08,1566.99,1780.01,599.95,609.00,42.57,0000 0000 0000 0000 000000
2016-03-02 00:59:50,0.04,9.70,0.00,17.08,21.84,25.57,14.97,51.01,1018.07,2048.99,1239.00,1566.58,1779.94,599.97,609.11,42.62,0000 0000 0000 0000 000000
2016-03-02 01:04:51,0.07,9.70,0.00,17.10,21.83,25.54,14.94,50.99,1018.06,2048.99,1238.86,1566.04,1779.28,599.89,609.01,42.67,0000 0000 0000 0000 000000
2016-03-02 01:09:53,0.08,9.71,0.00,17.08,21.82,25.56,14.96,50.98,1017.89,2048.99,1238.10,1566.00,1779.01,600.19,609.20,42.72,0000 0000 0000 0000 000000
2016-03-02 01:14:54,0.00,9.71,0.00,17.07,21.81,25.56,15.01,51.08,1017.63,2048.99,1238.00,1565.98,1778.99,600.44,609.18,42.77,0000 0000 0000 0000 000000
2016-03-02 01:19:55,0.13,9.71,0.00,17.09,21.79,25.55,15.01,51.17,1017.60,2048.99,1237.54,1565.54,1778.73,600.08,608.82,42.82,0000 0000 0000 0000 000000
2016-03-02 01:24:56,0.06,9.72,0.00,17.10,21.79,25.55,14.94,51.11,1017.59,2048.99,1237.03,1565.04,1778.07,599.82,608.61,42.87,0000 0000 0000 0000 000000
2016-03-02 01:29:58,0.00,9.72,0.00,17.09,21.77,25.55,15.02,51.20,1017.59,2048.99,1237.00,1565.00,1778.00,600.24,608.97,42.92,0000 0000 0000 0000 000000
2016-03-02 01:34:59,0.06,9.72,0.00,17.10,21.77,25.53,14.91,51.14,1017.59,2049.00,1236.65,1564.96,1777.82,599.90,608.84,42.97,0000 0000 0000 0000 000000
2016-03-02 01:40:01,0.11,9.73,0.00,17.11,21.77,25.55,15.01,51.20,1017.59,2049.00,1236.05,1564.47,1777.12,600.14,608.89,43.02,0000 0000 0000 0000 000000
2016-03-02 01:45:02,0.02,9.73,0.00,17.12,21.77,25.55,14.93,51.19,1017.59,2049.02,1235.96,1564.02,1777.00,600.23,608.96,43.07,0000 0000 0000 0000 000000
2016-03-02 01:50:03,0.08,9.73,0.00,17.12,21.76,25.52,14.99,51.17,1017.59,2049.05,1235.23,1563.99,1776.96,600.42,609.07,43.12,0000 0000 0000 0000 000000
2016-03-02 01:55:04,0.05,9.73,0.00,17.13,21.75,25.53,15.09,51.28,1017.59,2049.08,1235.00,1563.92,1776.34,600.51,609.34,43.17,0000 0000 0000 0000 000000
2016-03-02 02:00:06,0.14,9.74,0.00,17.14,21.74,25.54,14.93,51.27,1017.59,2049.13,1234.47,1563.20,1776.01,599.77,608.50,43.22,0000 0000 0000 0000 000000
2016-03-02 02:05:07,0.02,9.74,0.00,17.13,21.74,25.52,15.01,51.32,1017.59,2049.14,1234.02,1563.00,1775.97,600.13,608.79,43.28,0000 0000 0000 0000 000000
2016-03-02 02:10:09,0.07,9.74,0.00,17.15,21.74,25.54,14.94,51.27,1017.58,2049.08,1233.72,1562.97,1775.49,599.84,608.47,43.33,0000 0000 0000 0000 000000
2016-03-02 02:15:10,0.12,9.75,0.00,17.16,21.74,25.52,14.94,51.20,1017.59,2049.19,1233.07,1562.49,1775.02,599.97,608.59,43.38,0000 0000 0000 0000 000000
2016-03-02 02:20:11,0.05,9.75,0.00,17.17,21.74,25.56,14.96,51.49,1017.59,2049.21,1232.86,1562.01,1774.97,599.91,608.51,43.43,0000 0000 0000 0000 000000
2016-03-02 02:25:12,0.10,9.76,0.00,17.17,21.74,25.53,14.97,51.59,1017.59,2049.35,1232.14,1561.99,1774.39,600.07,608.77,43.48,0000 0000 0000 0000 000000
2016-03-02 02:30:14,0.07,9.76,0.00,17.19,21.75,25.53,14.97,51.52,1017.59,2049.46,1231.99,1561.64,1774.01,600.13,608.64,43.53,0000 0000 0000 0000 000000
2016-03-02 02:35:15,0.05,9.77,0.00,17.20,21.77,25.57,14.98,51.47,1017.59,2049.45,1231.81,1561.06,1773.90,599.92,608.47,43.58,0000 0000 0000 0000 000000
2016-03-02 02:40:16,0.10,9.77,0.00,17.23,21.77,25.55,14.97,51.36,1017.59,2049.42,1231.07,1561.00,1773.14,599.99,608.53,43.63,0000 0000 0000 0000 000000
2016-03-02 02:45:17,0.01,9.77,0.00,17.25,21.78,25.61,14.87,51.40,1017.59,2049.42,1231.00,1560.83,1772.99,599.56,607.97,43.68,0000 0000 0000 0000 000000
2016-03-02 02:50:19,0.09,9.78,0.00,17.27,21.79,25.57,14.89,51.28,1017.58,2049.28,1230.69,1560.10,1772.59,599.92,608.27,43.73,0000 0000 0000 0000 000000
2016-03-02 02:55:20,0.04,9.78,0.00,17.26,21.79,25.61,14.91,51.41,1017.53,2049.08,1230.03,1559.99,1772.02,600.01,608.36,43.78,0000 0000 0000 0000 000000
2016-03-02 03:00:22,0.02,9.78,0.00,17.29,21.81,25.61,14.94,51.37,1017.43,2049.06,1229.96,1559.89,1771.96,600.04,608.25,43.83,0000 0000 0000 0000 000000
2016-03-02 03:05:23,0.16,9.79,0.00,17.31,21.82,25.67,14.99,51.42,1017.33,2049.07,1229.24,1559.14,1771.29,600.37,608.52,43.88,0000 0000 0000 0000 000000
2016-03-02 03:10:24,0.02,9.79,0.00,17.32,21.82,25.66,14.87,51.45,1017.17,2049.03,1228.98,1559.00,1771.00,599.95,608.13,43.93,0000 0000 0000 0000 000000
2016-03-02 03:15:25,0.08,9.79,0.00,17.33,21.84,25.60,14.87,51.43,1017.17,2049.03,1228.47,1558.89,1770.88,599.50,607.50,43.98,0000 0000 0000 0000 000000
2016-03-02 03:20:27,0.10,9.80,0.00,17.37,21.84,25.65,14.89,51.45,1017.15,2049.01,1228.01,1558.16,1770.14,600.11,608.05,44.03,0000 0000 0000 0000 000000
2016-03-02 03:25:28,0.02,9.80,0.00,17.39,21.84,25.63,14.92,51.48,1017.34,2049.02,1227.84,1558.00,1770.00,600.11,608.09,44.08,0000 0000 0000 0000 000000
2016-03-02 03:30:30,0.06,9.80,0.00,17.42,21.86,25.69,14.91,51.57,1017.47,2049.01,1227.25,1557.98,1769.83,599.75,607.77,44.13,0000 0000 0000 0000 000000
2016-03-02 03:35:31,0.09,9.81,0.00,17.46,21.87,25.70,14.93,51.56,1017.42,2049.00,1227.00,1557.43,1769.11,599.88,607.76,44.19,0000 0000 0000 0000 000000
2016-03-02 03:40:32,0.05,9.81,0.00,17.46,21.88,25.71,14.96,51.58,1017.37,2049.00,1226.73,1557.01,1768.99,600.22,607.98,44.24,0000 0000 0000 0000 000000
2016-03-02 03:45:33,0.07,9.82,0.00,17.49,21.89,25.69,14.94,51.48,1017.48,2049.00,1226.05,1556.99,1768.58,599.75,607.59,44.29,0000 0000 0000 0000 000000
2016-03-02 03:50:34,0.11,9.82,0.00,17.52,21.91,25.72,14.92,51.61,1017.57,2049.00,1225.79,1556.38,1768.02,600.17,607.95,44.34,0000 0000 0000 0000 000000
2016-03-02 03:55:36,0.06,9.83,0.00,17.51,21.93,25.75,14.93,51.65,1017.56,2049.00,1225.10,1556.01,1767.93,600.52,608.35,44.39,0000 0000 0000 0000 000000
2016-03-02 04:00:37,0.04,9.83,0.00,17.54,21.95,25.80,14.89,51.52,1017.58,2049.00,1225.00,1555.96,1767.15,599.76,607.59,44.44,0000 0000 0000 0000 000000
2016-03-02 04:05:38,0.08,9.83,0.00,17.56,21.97,25.80,14.90,51.42,1017.58,2048.99,1224.79,1555.38,1766.98,599.79,607.53,44.49,0000 0000 0000 0000 000000
2016-03-02 04:10:40,0.10,9.84,0.00,17.60,22.00,25.84,14.93,51.44,1017.58,2048.97,1224.13,1555.01,1766.30,599.95,607.63,44.54,0000 0000 0000 0000 000000
2016-03-02 04:15:41,0.02,9.84,0.00,17.61,22.02,25.88,14.92,51.67,1017.57,2048.96,1223.99,1554.84,1766.00,599.84,607.69,44.59,0000 0000 0000 0000 000000
2016-03-02 04:20:43,0.12,9.84,0.00,17.63,22.05,25.84,14.90,51.71,1017.57,2048.80,1223.45,1554.09,1765.52,600.15,607.62,44.64,0000 0000 0000 0000 000000
2016-03-02 04:25:44,0.01,9.85,0.00,17.67,22.07,25.86,14.90,51.71,1017.57,2048.64,1223.02,1553.99,1765.01,599.86,607.38,44.69,0000 0000 0000 0000 000000
2016-03-02 04:30:45,-0.03,9.84,0.00,17.69,22.09,25.93,14.93,51.64,1017.57,2048.29,1222.98,1553.80,1764.91,599.74,607.33,44.74,0000 0000 0000 0000 000000
2016-03-02 04:35:46,0.13,9.85,0.00,17.73,22.11,25.92,14.91,51.63,1017.41,2048.09,1222.52,1553.11,1764.17,600.07,607.42,44.79,0000 0000 0000 0000 000000
2016-03-02 04:40:48,0.02,9.85,0.00,17.74,22.12,25.96,14.90,51.58,1017.20,2048.04,1222.01,1553.00,1764.00,600.06,607.24,44.84,0000 0000 0000 0000 000000
2016-03-02 04:45:49,0.04,9.85,0.00,17.75,22.14,25.96,14.87,51.58,1017.13,2048.02,1221.92,1552.85,1763.74,599.94,607.13,44.89,0000 0000 0000 0000 000000
2016-03-02 04:50:50,0.15,9.86,0.00,17.79,22.15,25.97,14.98,51.62,1017.14,2048.00,1221.17,1552.12,1763.05,600.10,607.25,44.94,0000 0000 0000 0000 000000
2016-03-02 04:55:51,0.01,9.86,0.00,17.82,22.16,25.99,14.86,51.52,1017.20,2048.00,1220.99,1552.00,1762.98,600.09,607.13,44.99,0000 0000 0000 0000 000000
2016-03-02 05:00:52,0.09,9.86,0.00,17.86,22.17,25.96,14.90,51.54,1017.36,2047.99,1220.45,1551.89,1762.60,599.92,606.94,45.05,0000 0000 0000 0000 000000
2016-03-02 05:05:54,0.09,9.87,0.00,17.87,22.19,26.01,14.95,51.58,1017.33,2047.99,1220.01,1551.18,1762.03,599.85,606.80,45.10,0000 0000 0000 0000 000000
2016-03-02 05:10:55,0.01,9.87,0.00,17.88,22.19,26.03,14.94,51.52,1017.43,2047.99,1219.92,1551.00,1761.97,600.28,607.36,45.15,0000 0000 0000 0000 000000
2016-03-02 05:15:56,0.10,9.88,0.00,17.89,22.21,26.03,14.90,51.47,1017.42,2047.99,1219.20,1550.96,1761.35,599.67,606.76,45.20,0000 0000 0000 0000 000000
2016-03-02 05:20:57,0.07,9.88,0.00,17.93,22.22,26.02,14.97,51.49,1017.33,2047.98,1219.00,1550.34,1761.00,600.40,607.25,45.25,0000 0000 0000 0000 000000
2016-03-02 05:25:58,0.02,9.88,0.00,17.95,22.24,26.08,14.88,51.63,1017.28,2047.96,1218.90,1550.01,1760.89,599.75,606.46,45.30,0000 0000 0000 0000 000000
2016-03-02 05:31:00,0.10,9.89,0.00,17.97,22.26,26.05,14.90,51.59,1017.31,2047.89,1218.11,1549.94,1760.12,600.22,606.96,45.35,0000 0000 0000 0000 000000
2016-03-02 05:36:01,0.06,9.89,0.00,17.97,22.28,26.12,14.87,51.56,1017.21,2047.84,1217.98,1549.39,1760.00,599.89,606.50,45.40,0000 0000 0000 0000 000000
2016-03-02 05:41:03,0.01,9.89,0.00,17.99,22.30,26.14,14.90,51.52,1017.18,2047.52,1217.64,1549.01,1759.71,600.03,606.75,45.45,0000 0000 0000 0000 000000
2016-03-02 05:46:04,0.04,9.89,0.00,18.00,22.32,26.19,14.85,51.53,1017.16,2047.26,1217.05,1548.97,1759.04,599.73,606.54,45.50,0000 0000 0000 0000 000000
2016-03-02 05:51:05,0.03,9.89,0.00,18.01,22.34,26.17,14.92,51.69,1017.12,2047.09,1217.00,1548.48,1758.93,600.17,606.53,45.55,0000 0000 0000 0000 000000
2016-03-02 05:56:07,0.05,9.90,0.00,18.04,22.37,26.17,14.88,51.68,1017.11,2047.03,1216.86,1548.02,1758.22,600.17,606.66,45.60,0000 0000 0000 0000 000000
2016-03-02 06:01:08,0.07,9.90,0.00,18.08,22.39,26.24,14.93,51.68,1017.11,2047.00,1216.09,1547.97,1757.99,600.10,606.53,45.65,0000 0000 0000 0000 000000
2016-03-02 06:06:10,0.08,9.90,0.00,18.08,22.42,26.23,14.81,51.42,1017.13,2047.00,1216.00,1547.44,1757.74,599.75,606.15,45.70,0000 0000 0000 0000 000000
2016-03-02 06:11:11,0.07,9.91,0.00,18.10,22.43,26.21,14.89,51.72,1017.12,2047.00,1215.69,1547.01,1757.07,599.68,606.02,45.75,0000 0000 0000 0000 000000
2016-03-02 06:16:12,0.04,9.91,0.00,18.11,22.45,26.24,14.90,51.47,1017.12,2047.00,1215.07,1546.99,1756.99,600.39,606.74,45.80,0000 0000 0000 0000 000000
2016-03-02 06:21:13,0.08,9.91,0.00,18.14,22.47,26.27,14.85,51.62,1017.12,2047.00,1215.00,1546.63,1756.45,599.92,606.26,45.85,0000 0000 0000 0000 000000
2016-03-02 06:26:15,0.06,9.92,0.00,18.16,22.49,26.30,14.83,51.49,1017.14,2047.00,1214.85,1546.03,1756.01,600.01,606.22,45.90,0000 0000 0000 0000 000000
2016-03-02 06:31:16,0.06,9.92,0.00,18.17,22.51,26.33,14.81,51.46,1017.20,2047.00,1214.10,1545.99,1755.96,599.60,605.84,45.95,0000 0000 0000 0000 000000
2016-03-02 06:36:18,0.08,9.93,0.00,18.21,22.52,26.39,14.78,51.53,1017.23,2047.00,1213.99,1545.63,1755.20,600.04,606.24,46.01,0000 0000 0000 0000 000000
2016-03-02 06:41:19,0.07,9.93,0.00,18.22,22.54,26.38,14.91,51.48,1017.27,2047.00,1213.71,1545.04,1755.00,600.21,606.38,46.06,0000 0000 0000 0000 000000
2016-03-02 06:46:23,0.06,9.93,0.00,18.22,22.57,26.40,14.88,51.43,1017.36,2047.00,1213.06,1544.99,1754.70,600.14,606.29,46.11,0000 0000 0000 0000 000000
2016-03-02 06:51:25,0.04,9.94,0.00,18.24,22.58,26.42,14.91,51.61,1017.27,2047.00,1212.99,1544.78,1754.07,600.07,606.19,46.16,0000 0000 0000 0000 000000
2016-03-02 06:56:26,0.07,9.94,0.00,18.23,22.59,26.44,14.93,51.48,1017.22,2046.98,1212.80,1544.07,1754.00,599.90,606.09,46.21,0000 0000 0000 0000 000000
2016-03-02 07:01:27,0.07,9.94,0.00,18.26,22.62,26.44,14.92,51.48,1017.34,2046.99,1212.09,1544.00,1753.70,599.96,606.00,46.26,0000 0000 0000 0000 000000
2016-03-02 07:06:29,0.03,9.95,0.00,18.28,22.63,26.44,14.86,51.37,1017.40,2046.98,1212.00,1543.90,1753.06,599.59,605.82,46.31,0000 0000 0000 0000 000000
2016-03-02 07:11:30,0.11,9.95,0.00,18.29,22.64,26.46,14.81,51.42,1017.52,2046.94,1211.55,1543.15,1752.98,599.73,605.93,46.36,0000 0000 0000 0000 000000
2016-03-02 07:16:31,0.04,9.95,0.00,18.31,22.66,26.49,14.87,51.37,1017.50,2046.76,1211.09,1543.00,1752.37,600.03,606.17,46.41,0000 0000 0000 0000 000000
2016-03-02 07:21:33,-0.05,9.95,0.00,18.35,22.67,26.50,14.83,51.21,1017.28,2046.38,1211.02,1542.98,1752.01,599.71,605.87,46.46,0000 0000 0000 0000 000000
2016-03-02 07:26:34,0.04,9.95,0.00,18.36,22.69,26.53,14.88,51.15,1017.27,2046.16,1210.97,1542.51,1751.97,599.96,605.87,46.51,0000 0000 0000 0000 000000
2016-03-02 07:31:35,0.12,9.96,0.00,18.39,22.69,26.54,14.93,51.42,1017.26,2046.06,1210.18,1542.04,1751.41,600.09,605.88,46.56,0000 0000 0000 0000 000000
2016-03-02 07:36:37,0.02,9.96,0.00,18.38,22.70,26.55,14.87,51.26,1017.31,2046.13,1210.00,1542.00,1751.03,599.98,605.89,46.61,0000 0000 0000 0000 000000
2016-03-02 07:41:38,-0.01,9.96,0.00,18.40,22.72,26.56,14.91,51.10,1017.22,2046.05,1209.99,1541.96,1750.99,600.00,605.67,46.66,0000 0000 0000 0000 000000
2016-03-02 07:46:39,0.14,9.96,0.00,18.41,22.72,26.56,14.84,51.23,1017.15,2046.04,1209.60,1541.36,1750.61,599.97,605.73,46.71,0000 0000 0000 0000 000000
2016-03-02 07:51:40,0.06,9.97,0.00,18.42,22.73,26.56,14.82,51.17,1017.27,2046.02,1209.03,1541.02,1750.03,599.56,605.61,46.76,0000 0000 0000 0000 000000
2016-03-02 07:56:41,0.00,9.97,0.00,18.44,22.74,26.57,14.86,51.23,1017.42,2046.01,1209.00,1541.00,1750.00,600.06,605.94,46.81,0000 0000 0000 0000 000000
2016-03-02 08:01:42,0.06,9.97,0.00,18.44,22.74,26.58,14.83,51.18,1017.54,2046.00,1208.65,1540.92,1749.93,599.73,605.75,46.86,0000 0000 0000 0000 000000
2016-03-02 08:06:43,0.13,9.98,0.00,18.44,22.75,26.59,14.90,51.33,1017.59,2046.00,1208.04,1540.23,1749.28,599.86,605.69,46.92,0000 0000 0000 0000 000000
2016-03-02 08:11:45,0.01,9.98,0.00,18.46,22.77,26.58,14.84,51.30,1017.59,2046.00,1207.98,1540.00,1749.01,599.82,605.78,46.97,0000 0000 0000 0000 000000
2016-03-02 08:16:46,0.07,9.98,0.00,18.47,22.77,26.60,14.88,51.33,1017.59,2046.00,1207.37,1540.00,1748.99,599.99,605.86,47.02,0000 0000 0000 0000 000000
2016-03-02 08:21:47,0.07,9.99,0.00,18.47,22.78,26.61,14.87,51.42,1017.59,2046.00,1207.03,1539.79,1748.46,599.85,605.75,47.07,0000 0000 0000 0000 000000
2016-03-02 08:26:49,0.05,9.99,0.00,18.47,22.79,26.64,14.88,51.33,1017.59,2046.00,1207.00,1539.13,1748.03,599.60,605.47,47.12,0000 0000 0000 0000 000000
2016-03-02 08:31:49,0.02,9.99,0.00,18.47,22.81,26.66,14.87,51.45,1017.59,2046.00,1206.89,1539.01,1747.99,599.99,605.88,47.17,0000 0000 0000 0000 000000
2016-03-02 08:36:51,0.08,10.00,0.00,18.51,22.82,26.65,14.92,51.56,1017.59,2046.00,1206.16,1538.99,1747.79,600.40,606.16,47.22,0000 0000 0000 0000 000000
2016-03-02 08:41:52,0.07,10.00,0.00,18.51,22.83,26.67,14.86,51.54,1017.59,2045.99,1205.99,1538.66,1747.08,599.95,605.87,47.27,0000 0000 0000 0000 000000
2016-03-02 08:46:53,0.06,10.00,0.00,18.49,22.84,26.66,14.88,51.56,1017.60,2045.99,1205.76,1538.05,1747.00,600.16,605.97,47.32,0000 0000 0000 0000 000000
2016-03-02 08:51:55,0.05,10.01,0.00,18.49,22.86,26.69,14.92,51.52,1017.60,2045.99,1205.12,1537.99,1746.91,599.82,605.76,47.37,0000 0000 0000 0000 000000
2016-03-02 08:56:56,0.04,10.01,0.00,18.51,22.87,26.68,14.91,51.52,1017.59,2045.99,1205.01,1537.98,1746.23,600.25,605.92,47.42,0000 0000 0000 0000 000000
2016-03-02 09:01:57,0.04,10.01,0.00,18.52,22.89,26.71,14.83,51.54,1017.59,2045.98,1204.98,1537.68,1746.01,599.80,605.69,47.47,0000 0000 0000 0000 000000
2016-03-02 09:06:58,0.04,10.01,0.00,18.49,22.90,26.71,14.81,51.41,1017.60,2045.98,1204.96,1537.12,1745.99,599.77,605.62,47.52,0000 0000 0000 0000 000000
2016-03-02 09:12:00,0.03,10.01,0.00,18.50,22.92,26.74,14.90,51.25,1017.62,2045.95,1204.97,1537.00,1745.50,599.98,605.87,47.57,0000 0000 0000 0000 000000
2016-03-02 09:17:01,0.07,10.02,0.00,18.52,22.93,26.78,14.84,51.43,1017.64,2045.89,1204.30,1536.98,1745.02,599.90,605.70,47.62,0000 0000 0000 0000 000000
2016-03-02 09:22:02,0.02,10.02,0.00,18.53,22.94,26.83,14.89,51.28,1017.65,2045.76,1204.06,1536.75,1744.98,600.01,605.91,47.67,0000 0000 0000 0000 000000
2016-03-02 09:27:04,0.02,10.02,0.00,18.53,22.96,26.83,14.85,51.27,1017.62,2045.47,1204.00,1536.08,1744.61,599.74,605.38,47.72,0000 0000 0000 0000 000000
2016-03-02 09:32:05,0.01,10.02,0.00,18.53,22.97,26.81,14.87,51.28,1017.61,2045.22,1203.77,1536.00,1744.03,599.83,605.61,47.77,0000 0000 0000 0000 000000
2016-03-02 09:37:07,0.06,10.02,0.00,18.53,22.99,26.82,14.87,51.30,1017.66,2045.18,1203.07,1535.97,1744.00,599.88,605.63,47.82,0000 0000 0000 0000 000000
2016-03-02 09:42:08,0.04,10.03,0.00,18.53,22.99,26.82,14.87,51.25,1017.62,2045.09,1203.00,1535.50,1743.78,600.24,605.91,47.88,0000 0000 0000 0000 000000
2016-03-02 09:47:09,0.13,10.03,0.00,18.53,23.00,26.75,14.89,51.24,1017.61,2045.05,1202.37,1535.03,1743.09,600.21,606.02,47.93,0000 0000 0000 0000 000000
2016-03-02 09:52:10,0.01,10.03,0.00,18.53,23.01,26.82,14.79,51.30,1017.63,2045.06,1202.01,1535.00,1743.00,599.63,605.41,47.98,0000 0000 0000 0000 000000
2016-03-02 09:57:11,-0.00,10.03,0.00,18.54,23.02,26.78,14.86,51.17,1017.62,2045.03,1202.00,1535.00,1742.98,599.80,605.62,48.03,0000 0000 0000 0000 000000
2016-03-02 10:02:12,0.06,10.04,0.00,18.55,23.02,26.79,14.89,51.33,1017.63,2045.04,1201.72,1534.97,1742.61,600.11,605.87,48.08,0000 0000 0000 0000 000000
2016-03-02 10:07:14,0.11,10.04,0.00,18.56,23.02,26.84,14.88,51.25,1017.65,2045.03,1201.09,1534.56,1742.08,600.12,605.84,48.13,0000 0000 0000 0000 000000
2016-03-02 10:12:15,0.02,10.04,0.00,18.56,23.04,26.82,14.85,51.24,1017.74,2045.00,1201.00,1534.04,1742.00,599.98,605.79,48.18,0000 0000 0000 0000 000000
2016-03-02 10:17:16,0.01,10.04,0.00,18.57,23.04,26.84,14.88,51.26,1017.87,2045.01,1200.97,1534.01,1741.99,599.77,605.55,48.23,0000 0000 0000 0000 000000
2016-03-02 10:22:17,0.03,10.04,0.00,18.59,23.04,26.86,14.88,51.25,1017.90,2045.02,1200.79,1533.99,1741.77,600.02,605.76,48.28,0000 0000 0000 0000 000000
2016-03-02 10:27:19,0.05,10.05,0.00,18.57,23.05,26.83,14.84,51.25,1017.92,2045.01,1200.37,1533.96,1741.12,600.04,605.95,48.33,0000 0000 0000 0000 000000
2016-03-02 10:32:20,0.06,10.05,0.00,18.57,23.06,26.89,14.86,51.24,1018.01,2045.00,1200.30,1533.62,1741.00,599.97,605.74,48.38,0000 0000 0000 0000 000000
2016-03-02 10:37:21,0.05,10.05,0.00,18.59,23.07,26.89,14.88,51.30,1017.99,2045.00,1200.01,1533.07,1740.98,600.05,605.92,48.43,0000 0000 0000 0000 000000
2016-03-02 10:42:23,0.03,10.06,0.00,18.60,23.07,26.85,14.86,51.15,1017.87,2045.00,1199.99,1533.01,1740.66,599.91,605.74,48.48,0000 0000 0000 0000 000000
2016-03-02 10:47:24,0.02,10.06,0.00,18.62,23.07,26.83,14.85,51.17,1017.68,2045.00,1199.96,1533.00,1740.08,599.82,605.52,48.53,0000 0000 0000 0000 000000
2016-03-02 10:52:26,0.01,10.06,0.00,18.61,23.09,26.89,14.90,51.24,1017.65,2045.00,1199.88,1532.97,1740.00,600.16,605.71,48.58,0000 0000 0000 0000 000000
2016-03-02 10:57:27,0.12,10.06,0.00,18.58,23.09,26.94,14.84,51.18,1017.67,2045.00,1199.08,1532.60,1739.99,599.98,605.60,48.63,0000 0000 0000 0000 000000
2016-03-02 11:02:29,0.03,10.06,0.00,18.60,23.09,26.90,14.92,51.32,1017.63,2045.00,1198.99,1532.07,1739.86,599.91,605.56,48.68,0000 0000 0000 0000 000000
2016-03-02 11:07:30,0.04,10.07,0.00,18.60,23.09,26.87,14.92,51.14,1017.60,2045.00,1198.89,1532.00,1739.17,599.85,605.55,48.73,0000 0000 0000 0000 000000
2016-03-02 11:12:31,0.07,10.07,0.00,18.61,23.09,26.89,14.90,51.22,1017.59,2045.00,1198.13,1531.99,1739.01,600.21,605.77,48.78,0000 0000 0000 0000 000000
2016-03-02 11:17:33,0.00,10.07,0.00,18.62,23.09,26.90,14.93,51.19,1017.59,2044.99,1198.02,1531.98,1738.99,600.15,605.78,48.84,0000 0000 0000 0000 000000
2016-03-02 11:22:34,0.01,10.07,0.00,18.63,23.09,26.85,14.85,51.18,1017.60,2044.99,1198.04,1531.86,1738.91,600.05,605.64,48.89,0000 0000 0000 0000 000000
2016-03-02 11:27:36,0.09,10.08,0.00,18.61,23.09,26.89,14.84,51.12,1017.60,2044.99,1198.00,1531.17,1738.28,600.06,605.67,48.94,0000 0000 0000 0000 000000
2016-03-02 11:32:37,0.01,10.08,0.00,18.59,23.10,26.91,14.90,51.31,1017.59,2044.99,1197.92,1531.01,1738.02,600.20,605.84,48.99,0000 0000 0000 0000 000000
2016-03-02 11:37:38,0.06,10.08,0.00,18.59,23.10,26.90,14.75,51.17,1017.59,2044.99,1197.20,1531.00,1738.00,599.62,605.34,49.04,0000 0000 0000 0000 000000
2016-03-02 11:42:39,0.01,10.08,0.00,18.60,23.11,26.89,14.83,51.22,1017.59,2044.99,1197.02,1530.98,1737.96,600.02,605.65,49.09,0000 0000 0000 0000 000000
2016-03-02 11:47:40,0.05,10.08,0.00,18.60,23.12,26.92,14.85,51.05,1017.59,2044.99,1196.99,1530.76,1737.44,600.01,605.71,49.14,0000 0000 0000 0000 000000
2016-03-02 11:52:41,0.11,10.09,0.00,18.59,23.12,26.83,14.97,51.28,1017.59,2044.99,1196.60,1530.12,1737.07,600.52,606.15,49.19,0000 0000 0000 0000 000000
2016-03-02 11:57:43,0.03,10.09,0.00,18.58,23.12,26.87,14.89,51.30,1017.59,2044.99,1196.02,1530.01,1737.01,600.03,605.66,49.24,0000 0000 0000 0000 000000
2016-03-02 12:02:44,0.00,10.09,0.00,18.59,23.12,26.92,14.88,51.33,1017.59,2044.99,1195.99,1530.00,1737.00,600.11,605.66,49.29,0000 0000 0000 0000 000000
2016-03-02 12:07:45,0.01,10.09,0.00,18.59,23.12,26.90,14.90,51.52,1017.59,2044.99,1195.88,1529.98,1736.95,600.19,605.80,49.34,0000 0000 0000 0000 000000
2016-03-02 12:12:46,0.07,10.10,0.00,18.58,23.12,26.89,14.89,51.38,1017.59,2044.99,1195.45,1529.89,1736.47,599.66,605.25,49.39,0000 0000 0000 0000 000000
2016-03-02 12:17:48,0.10,10.10,0.00,18.58,23.13,26.95,14.87,51.27,1017.59,2044.99,1195.08,1529.35,1736.03,600.19,606.08,49.44,0000 0000 0000 0000 000000
2016-03-02 12:22:49,0.01,10.10,0.00,18.60,23.14,26.89,14.82,51.15,1017.59,2044.99,1195.00,1529.03,1736.00,600.12,605.82,49.49,0000 0000 0000 0000 000000
2016-03-02 12:27:50,0.00,10.10,0.00,18.59,23.14,26.90,14.88,51.25,1017.59,2044.98,1194.96,1529.00,1735.99,600.16,605.75,49.54,0000 0000 0000 0000 000000
2016-03-02 12:32:51,0.03,10.10,0.00,18.58,23.15,26.93,14.88,51.33,1017.61,2044.99,1194.79,1528.99,1735.80,600.27,605.92,49.59,0000 0000 0000 0000 000000
2016-03-02 12:37:52,0.09,10.11,0.00,18.57,23.15,26.92,14.88,51.38,1017.59,2044.99,1194.20,1528.90,1735.13,600.02,605.80,49.64,0000 0000 0000 0000 000000
2016-03-02 12:42:54,0.06,10.11,0.00,18.59,23.17,26.91,14.91,51.45,1017.60,2044.98,1194.01,1528.27,1735.00,600.23,605.85,49.70,0000 0000 0000 0000 000000
2016-03-02 12:47:55,0.01,10.11,0.00,18.59,23.17,26.91,14.87,51.43,1017.59,2044.99,1193.98,1528.02,1734.99,599.71,605.42,49.75,0000 0000 0000 0000 000000
2016-03-02 12:52:56,0.02,10.11,0.00,18.59,23.17,26.90,14.87,51.48,1017.60,2044.98,1193.95,1528.00,1734.59,599.67,605.27,49.80,0000 0000 0000 0000 000000
2016-03-02 12:57:57,0.08,10.12,0.00,18.58,23.18,26.95,14.86,51.39,1017.60,2044.97,1193.39,1527.99,1734.06,600.31,606.07,49.85,0000 0000 0000 0000 000000